Location: Cedar Brake
(32.2526°N, 97.8459°W)
Time: 17:43:50
(UTC+00:00)

OAO 3 Rocket - Pass Details

Date: 22 April 2026
Orbit: 613 x 659 km, 35.0° (Epoch: 9 May)

Event Time Altitude Azimuth Distance (km) Brightness Sun altitude
Rises 01:57:36 0° 277° (W) 2,883 8.2 -11.3°
Reaches altitude 10° 01:59:57 10° 281° (W) 1,984 7.1 -11.8°
Maximum altitude 02:04:30 61° 1° (N) 714 3.5 -12.6°
Enters shadow 02:08:18 15° 80° (E) 1,698 4.8 -13.4°
